SENTINEL-3B (43437 NORAD) Tracking and Keplerian Element Data

This shows tracking and keplerian element data for the satellite.

Feedback or suggestion? Click here.




ElementValue
Catalog43437
NameSENTINEL-3B
Epoch Orbit29778
Epoch Day13.16849329
Epoch Year2024
RAAN82.2607
Inclination98.6192
Eccentricity9.94E-05
Argument of Perigee76.4227
Mean Anonmoly283.7064
Mean Motion14.26740174
Decay Rate2.65E-06
L11 43437U 18039A 24013.16849329 .00000265 00000+0 12750-3 0 9994
L22 43437 98.6192 82.2607 0000994 76.4227 283.7064 14.26740174297782



Live tracking and technical data element details for SENTINEL-3B (NORAD 43437). SENTINEL-3B can be tracked NOW for your location showing map with azimuth and elevation plus other details from your city location.







IsCatalogInMostPopularTable: catalog: 43437, numindb: 815
Update: records affected: 1



GetName: 43437 SENTINEL-3B

Hit Count: updated at: Fri, 19 Apr 2024 12:15:13 GMT